Regional Weather Roundup
Issued by NWS Nashville, TN

Home | Current Version | Previous Version | Text Only | Print | Product List | Glossary On
Versions: 1 2 3 4 5 6 7 8 9 10 11 12 13 14 15 16 17 18 19 20 21 22 23 24 25 26 27 28 29 30 31 32 33 34 35 36 37 38 39 40 41 42 43 44 45 46 47 48 49 50
000
ASUS44 KOHX 020115
RWROHX
MIDDLE TENNESSEE HOURLY WEATHER ROUNDUP
NATIONAL WEATHER SERVICE NASHVILLE TN
800 PM CDT FRI AUG 01 2014

NOTE: "FAIR" INDICATES FEW OR NO CLOUDS BELOW 12,000 FEET WITH
NO SIGNIFICANT WEATHER AND/OR OBSTRUCTIONS TO VISIBILITY.

* THESE REPORTS ARE NOT UNDER NWS QUALITY CONTROL AND MAY NOT
  REPORT WEATHER SUCH AS PRECIPITATION AND FOG.


TNZ005>011-023>034-057-059-062>066-078-080-020200
...NORTHERN MIDDLE TENNESSEE...

CITY           SKY/WX    TMP DP  RH WIND       PRES   REMARKS
CLARKSVILLE    PTCLDY    82  56  40 N3        30.02R
CROSSVILLE     MOCLDY    72  64  76 CALM      30.10S
GALLATIN         N/A     83  63  50 CALM      30.04S
DICKSON        PTCLDY    77  64  65 SW3       30.04S
LEBANON        PTCLDY    80  63  56 CALM      30.02S
LIVINGSTON       N/A     76  62  61 CALM      30.07S
NASHVILLE      MOCLDY    81  62  52 CALM      30.03S
WEST NASHVILLE   N/A     82  63  51 W3        30.02R
PORTLAND       PTCLDY    77  57  50 CALM      30.03S
SMYRNA         MOCLDY    79  66  64 CALM      30.04R
SPARTA         MOCLDY    75  70  83 CALM      30.05S
$$
TNZ056-058-060-061-075>077-079-093>097-020200
...SOUTHERN MIDDLE TENNESSEE...

CITY           SKY/WX    TMP DP  RH WIND       PRES   REMARKS
COLUMBIA       MOCLDY    79  68  69 CALM      30.02S
FAYETTEVILLE   MOCLDY    75  64  69 E8        30.04S
LEWISBURG      MOCLDY    77  67  71 CALM      30.03S
MCMINNVILLE    MOCLDY    75  72  88 CALM      30.06R
MURFREESBORO   MOCLDY    80  62  54 CALM      30.02S
SHELBYVILLE    MOCLDY    77  68  73 CALM      30.05R
TULLAHOMA      MOCLDY    73  66  78 CALM      30.06S
WINCHESTER     CLOUDY    70  70 100 CALM      30.05S
$$


...KEY TO REMARKS...
VSB - VISIBILITY IN MILES
WCI - WIND CHILL INDEX
HX  - HEAT INDEX




USA.gov is the U.S. government's official web portal to all federal, state and local government web resources and services.